Location: Feydey
(46.3431°N, 7.0106°E)
Time: 14:12:40
(UTC+00:00)

Meteor 1-11 - Pass Details

Date: 20 June 2021
Orbit: 842 x 885 km, 81.2° (Epoch: 02 August)

Event Time Altitude Azimuth Distance (km) Brightness Sun altitude
Exits shadow 23:19:56 39° 178° (S) 1,242 4.5 -20.1°
Maximum altitude 23:22:05 78° 98° (E) 868 4.2 -20.2°
Drops below altitude 10° 23:27:40 10° 14° (NNE) 2,473 7.7 -20.2°
Sets 23:30:06 0° 13° (NNE) 3,412 8.8 -20.2°
